Showing default

OPS 6679 (VELA 8), 2766

Orbit data source: Space-Track

OPS 6679 (VELA 8), 2766 is a payload satellite owned by USAF SSD (US) in HEO that was launched on Fri, 28 Apr 1967 UTC via a TITAN IIIC launch vehicle from the Air Force Eastern Test Range (AFETR). Payload-class satellites include a variety of spacecraft equipped with specific instruments for various scientific and technological missions. These include communications satellites like Starlink; space stations such as the ISS; scientific satellites like the Hubble; Earth observation satellites from companies like Planet Labs, Umbra, and HawkEye 360; GPS; miniature CubeSats for education and research; and military/defense satellites.

Loading next visibility...
Identifier
2766, 1967-040B
Orbit
HEO
Country
Flag of USUS
Related business
Manufacturer
TRW
Mission
Spacecraft
Bus & Motor
VELA, BE-3
Mass
~348 kg wet, 221 kg dry
Launch date (UTC)
1967-04-28 (59 years ago)
Launch vehicle
TITAN IIIC
Launch site
Air Force Eastern Test Range (AFETR)
Object type
Payload
Rocket body
Debris
Shape & HBR
Unknown
Radar Cross Section
RCS unknown

Expand to show TLE details & history
Last TLE update: 3 weeks ago

TLE from 3 weeks ago
0 OPS 6679 (VELA 8)
1 02766U 67040B   26049.76197669 -.00001013  00000-0  00000-0 0  9996
2 02766  35.8497   7.2864 4660878 117.8557 359.0449  0.21263094  5241
Epoch: 2026-02-18T18:17Z
TLE epoch observation values (Epoch: 2026-02-18T18:17:14.786Z)
Latitude
33.02878°
Longitude
60.14501°
Altitude
56,290.858 km
Speed
3.059 km/s
True Right ascension
08h 12m 43s
True Declination
33° 00' 39"
Sunlit
Object was in daylight at epoch
Visualization orbit readout
Latitude
Unknown
Longitude
Unknown
Altitude
Unknown
Speed
Unknown
Apparent Right ascension
Unknown
Apparent Declination
Unknown
Sunlit
N/A
Visualization observer readout
Local Sidereal Time
20:00:59
Azimuth
Unknown
Elevation
Unknown
Doppler factor
Unknown
Orbital elements
Apogee altitude
167,460.137 km
Perigee altitude
56,929.378 km
Semi-major axis
118,572.895 km
Eccentricity
0.46609
Inclination
35.8497°
RAAN
7.2864°
Arg. of periapsis
117.8557°
True anomaly
357.03653°
Mean anomaly
359.0449°
Eccentric anomaly
358.21138°
Mean motion
0.05316 °/min
Orbital period
6,772.32 mins
BSTAR
0
Loading maneuver chart data...
Computing Atmospheric mass density...
Loading historical data...
Loading historical data...
Loading historical data...
Loading historical data...
Loading historical data...
Loading historical data...
Loading historical data...

Documentation

Showing up to 5 results
|